Location: Canet
(43.3261°N, 5.3723°E)
Time: 17:35:35
(UTC+00:00)

NOSS 2-1 (D) - Pass Details

Date: 24 January 2021
Orbit: 434 x 1768 km, 63.3° (Epoch: 27 February)

Event Time Altitude Azimuth Distance (km) Brightness Sun altitude
Rises 18:37:34 0° 236° (SW) 2,462 7.7 -21.3°
Reaches altitude 10° 18:39:48 10° 246° (WSW) 1,547 6.6 -21.7°
Maximum altitude 18:42:50 34° 313° (NW) 744 4.3 -22.2°
Enters shadow 18:43:25 31° 337° (NNW) 793 4.2 -22.4°
